Time,TemperatureF,DewpointF,PressureIn,WindDirection,WindDirectionDegrees,WindSpeedMPH,WindSpeedGustMPH,Humidity,HourlyPrecipIn,Conditions,Clouds,dailyrainin,SoftwareType,DateUTC
2013-05-28 00:01:00,51.0,42.0,29.86,NNW,346,25.0,36.0,71,0.00,,,0.00,,2013-05-28 07:01:00,
2013-05-28 00:11:00,50.0,43.0,29.85,NNE,15,27.0,46.0,76,0.00,,,0.00,,2013-05-28 07:11:00,
2013-05-28 00:21:00,50.0,43.0,29.85,NNE,15,27.0,46.0,76,0.00,,,0.00,,2013-05-28 07:21:00,
2013-05-28 00:32:00,49.0,42.0,29.85,NNW,344,29.0,47.0,78,0.00,,,0.00,,2013-05-28 07:32:00,
2013-05-28 00:41:00,49.0,42.0,29.85,NNW,344,29.0,47.0,78,0.00,,,0.00,,2013-05-28 07:41:00,
2013-05-28 00:52:00,49.0,43.0,29.85,North,360,29.0,50.0,79,0.00,,,0.00,,2013-05-28 07:52:00,
2013-05-28 01:01:00,49.0,43.0,29.85,North,360,29.0,50.0,79,0.00,,,0.00,,2013-05-28 08:01:00,
2013-05-28 01:11:00,49.0,43.0,29.85,North,360,29.0,50.0,79,0.00,,,0.00,,2013-05-28 08:11:00,
2013-05-28 01:21:00,49.0,43.0,29.85,North,351,26.0,43.0,81,0.00,,,0.00,,2013-05-28 08:21:00,
2013-05-28 01:32:00,49.0,44.0,29.85,North,5,23.0,34.0,82,0.00,,,0.00,,2013-05-28 08:32:00,
2013-05-28 01:42:00,49.0,44.0,29.85,North,5,23.0,34.0,82,0.00,,,0.00,,2013-05-28 08:42:00,
2013-05-28 01:52:00,49.0,43.0,29.84,North,355,21.0,45.0,81,0.00,,,0.00,,2013-05-28 08:52:00,
2013-05-28 02:01:00,48.0,42.0,29.84,North,360,26.0,41.0,81,0.00,,,0.00,,2013-05-28 09:01:00,
2013-05-28 02:11:00,48.0,42.0,29.84,North,360,26.0,41.0,81,0.00,,,0.00,,2013-05-28 09:11:00,
2013-05-28 02:21:00,48.0,42.0,29.84,North,360,26.0,41.0,81,0.00,,,0.00,,2013-05-28 09:21:00,
2013-05-28 02:33:00,47.0,42.0,29.82,North,350,29.0,44.0,84,0.00,,,0.00,,2013-05-28 09:33:00,
2013-05-28 02:43:00,47.0,42.0,29.82,North,350,29.0,44.0,84,0.00,,,0.00,,2013-05-28 09:43:00,
2013-05-28 02:53:00,47.0,43.0,29.82,NNW,344,27.0,48.0,85,0.00,,,0.00,,2013-05-28 09:53:00,
2013-05-28 03:02:00,47.0,43.0,29.82,NNW,344,27.0,48.0,85,0.00,,,0.00,,2013-05-28 10:02:00,
2013-05-28 03:12:00,47.0,43.0,29.82,NNW,344,27.0,48.0,85,0.00,,,0.00,,2013-05-28 10:12:00,
2013-05-28 03:22:00,48.0,44.0,29.80,NNW,336,28.0,41.0,86,0.00,,,0.00,,2013-05-28 10:22:00,
2013-05-28 03:32:00,48.0,44.0,29.80,NNW,336,28.0,41.0,86,0.00,,,0.00,,2013-05-28 10:32:00,
2013-05-28 03:43:00,48.0,44.0,29.80,NNW,336,28.0,41.0,86,0.00,,,0.00,,2013-05-28 10:43:00,
2013-05-28 03:53:00,48.0,44.0,29.80,NNW,336,28.0,41.0,86,0.00,,,0.00,,2013-05-28 10:53:00,
2013-05-28 04:02:00,48.0,44.0,29.82,North,360,30.0,51.0,87,0.00,,,0.00,,2013-05-28 11:02:00,
2013-05-28 04:11:00,48.0,44.0,29.82,North,360,30.0,51.0,87,0.00,,,0.00,,2013-05-28 11:11:00,
2013-05-28 04:22:00,48.0,45.0,29.83,NW,325,28.0,51.0,88,0.00,,,0.00,,2013-05-28 11:22:00,
2013-05-28 04:32:00,48.0,45.0,29.83,NW,325,28.0,51.0,88,0.00,,,0.00,,2013-05-28 11:32:00,
2013-05-28 04:41:00,48.0,45.0,29.83,NW,325,28.0,51.0,88,0.00,,,0.00,,2013-05-28 11:41:00,
2013-05-28 04:52:00,48.0,45.0,29.81,North,5,25.0,40.0,88,0.00,,,0.00,,2013-05-28 11:52:00,
2013-05-28 05:01:00,48.0,44.0,29.83,North,355,27.0,41.0,87,0.00,,,0.00,,2013-05-28 12:01:00,
2013-05-28 05:11:00,48.0,44.0,29.83,North,355,27.0,41.0,87,0.00,,,0.00,,2013-05-28 12:11:00,
2013-05-28 05:21:00,48.0,44.0,29.84,NNW,343,8.0,31.0,87,0.00,,,0.00,,2013-05-28 12:21:00,
2013-05-28 05:31:00,48.0,45.0,29.84,NNW,344,9.0,22.0,88,0.00,,,0.00,,2013-05-28 12:31:00,
2013-05-28 05:42:00,48.0,45.0,29.84,NNW,344,9.0,22.0,88,0.00,,,0.00,,2013-05-28 12:42:00,
2013-05-28 05:52:00,48.0,45.0,29.83,NNW,329,11.0,35.0,88,0.00,,,0.00,,2013-05-28 12:52:00,
2013-05-28 06:01:00,47.0,44.0,29.82,North,360,13.0,33.0,89,0.00,,,0.00,,2013-05-28 13:01:00,
2013-05-28 06:11:00,47.0,44.0,29.82,North,360,13.0,33.0,89,0.00,,,0.00,,2013-05-28 13:11:00,
2013-05-28 06:21:00,47.0,44.0,29.82,NNW,331,11.0,32.0,90,0.00,,,0.00,,2013-05-28 13:21:00,
2013-05-28 06:32:00,47.0,45.0,29.82,NNW,348,15.0,41.0,91,0.00,,,0.00,,2013-05-28 13:32:00,
2013-05-28 06:42:00,47.0,45.0,29.82,NNW,348,15.0,41.0,91,0.00,,,0.00,,2013-05-28 13:42:00,
2013-05-28 06:52:00,47.0,45.0,29.82,NNW,348,15.0,41.0,91,0.00,,,0.00,,2013-05-28 13:52:00,
2013-05-28 07:01:00,47.0,45.0,29.82,NNW,348,15.0,41.0,91,0.00,,,0.00,,2013-05-28 14:01:00,
2013-05-28 07:11:00,47.0,45.0,29.82,NNW,348,15.0,41.0,91,0.00,,,0.00,,2013-05-28 14:11:00,
2013-05-28 07:22:00,47.0,45.0,29.79,NNW,344,23.0,36.0,91,0.00,,,0.00,,2013-05-28 14:22:00,
2013-05-28 07:32:00,47.0,44.0,29.80,NNW,338,19.0,41.0,90,0.00,,,0.00,,2013-05-28 14:32:00,
2013-05-28 07:42:00,47.0,44.0,29.80,NNW,338,19.0,41.0,90,0.00,,,0.00,,2013-05-28 14:42:00,
2013-05-28 07:52:00,47.0,44.0,29.80,NNW,338,19.0,41.0,90,0.00,,,0.00,,2013-05-28 14:52:00,
2013-05-28 08:01:00,47.0,44.0,29.80,NNW,338,19.0,41.0,90,0.00,,,0.00,,2013-05-28 15:01:00,
2013-05-28 08:21:00,48.0,44.0,29.78,North,350,21.0,43.0,87,0.00,,,0.00,,2013-05-28 15:21:00,
2013-05-28 08:32:00,49.0,45.0,29.80,North,5,21.0,35.0,86,0.00,,,0.00,,2013-05-28 15:32:00,
2013-05-28 08:43:00,49.0,45.0,29.80,North,5,21.0,35.0,86,0.00,,,0.00,,2013-05-28 15:43:00,
2013-05-28 08:53:00,49.0,45.0,29.80,North,5,21.0,35.0,86,0.00,,,0.00,,2013-05-28 15:53:00,
2013-05-28 09:03:00,49.0,45.0,29.79,NNW,337,24.0,46.0,86,0.00,,,0.00,,2013-05-28 16:03:00,
2013-05-28 09:12:00,49.0,45.0,29.79,NNW,337,24.0,46.0,86,0.00,,,0.00,,2013-05-28 16:12:00,
2013-05-28 09:22:00,50.0,46.0,29.79,North,349,25.0,44.0,85,0.00,,,0.00,,2013-05-28 16:22:00,
2013-05-28 09:32:00,50.0,46.0,29.79,North,349,25.0,44.0,85,0.00,,,0.00,,2013-05-28 16:32:00,
2013-05-28 09:42:00,50.0,46.0,29.79,North,349,25.0,44.0,85,0.00,,,0.00,,2013-05-28 16:42:00,
2013-05-28 09:52:00,50.0,46.0,29.79,North,349,25.0,44.0,85,0.00,,,0.00,,2013-05-28 16:52:00,
2013-05-28 10:02:00,50.0,45.0,29.79,North,355,23.0,37.0,84,0.00,,,0.00,,2013-05-28 17:02:00,
2013-05-28 10:12:00,50.0,45.0,29.79,North,355,23.0,37.0,84,0.00,,,0.00,,2013-05-28 17:12:00,
2013-05-28 10:22:00,50.0,45.0,29.79,North,355,23.0,37.0,84,0.00,,,0.00,,2013-05-28 17:22:00,
2013-05-28 10:32:00,50.0,45.0,29.79,North,360,24.0,44.0,83,0.00,,,0.00,,2013-05-28 17:32:00,
2013-05-28 10:41:00,51.0,46.0,29.80,North,355,19.0,34.0,83,0.00,,,0.00,,2013-05-28 17:41:00,
2013-05-28 10:52:00,51.0,46.0,29.80,North,355,19.0,34.0,83,0.00,,,0.00,,2013-05-28 17:52:00,
2013-05-28 11:01:00,51.0,46.0,29.80,North,360,24.0,51.0,84,0.00,,,0.00,,2013-05-28 18:01:00,
2013-05-28 11:11:00,51.0,46.0,29.80,North,360,24.0,51.0,84,0.00,,,0.00,,2013-05-28 18:11:00,
2013-05-28 11:21:00,51.0,46.0,29.80,North,360,24.0,51.0,84,0.00,,,0.00,,2013-05-28 18:21:00,
2013-05-28 11:32:00,51.0,47.0,29.82,NNE,26,17.0,35.0,85,0.00,,,0.00,,2013-05-28 18:32:00,
2013-05-28 11:42:00,51.0,47.0,29.82,NNE,26,17.0,35.0,85,0.00,,,0.00,,2013-05-28 18:42:00,
2013-05-28 11:52:00,51.0,47.0,29.82,NNE,26,17.0,35.0,85,0.00,,,0.00,,2013-05-28 18:52:00,
2013-05-28 12:01:00,50.0,46.0,29.82,North,355,17.0,38.0,87,0.00,,,0.00,,2013-05-28 19:01:00,
2013-05-28 12:11:00,50.0,46.0,29.82,North,355,17.0,38.0,87,0.00,,,0.00,,2013-05-28 19:11:00,
2013-05-28 12:21:00,50.0,47.0,29.82,North,5,14.0,38.0,88,0.00,,,0.00,,2013-05-28 19:21:00,
2013-05-28 12:31:00,50.0,47.0,29.82,North,5,14.0,38.0,88,0.00,,,0.00,,2013-05-28 19:31:00,
2013-05-28 12:41:00,50.0,47.0,29.82,North,5,14.0,38.0,88,0.00,,,0.00,,2013-05-28 19:41:00,
2013-05-28 12:52:00,51.0,47.0,29.82,North,349,16.0,33.0,86,0.00,,,0.00,,2013-05-28 19:52:00,
2013-05-28 13:01:00,51.0,47.0,29.82,NNW,341,16.0,41.0,87,0.00,,,0.00,,2013-05-28 20:01:00,
2013-05-28 13:11:00,51.0,47.0,29.82,NNW,341,16.0,41.0,87,0.00,,,0.00,,2013-05-28 20:11:00,
2013-05-28 13:22:00,51.0,47.0,29.82,NNW,341,16.0,41.0,87,0.00,,,0.00,,2013-05-28 20:22:00,
2013-05-28 13:32:00,52.0,48.0,29.81,North,355,20.0,42.0,85,0.00,,,0.00,,2013-05-28 20:32:00,
2013-05-28 13:42:00,52.0,48.0,29.81,North,355,20.0,42.0,85,0.00,,,0.00,,2013-05-28 20:42:00,
2013-05-28 13:52:00,52.0,47.0,29.81,North,350,20.0,40.0,84,0.00,,,0.00,,2013-05-28 20:52:00,
2013-05-28 14:01:00,52.0,47.0,29.80,North,351,21.0,47.0,84,0.00,,,0.00,,2013-05-28 21:01:00,
2013-05-28 14:11:00,52.0,48.0,29.81,NNW,345,15.0,39.0,85,0.00,,,0.00,,2013-05-28 21:11:00,
2013-05-28 14:21:00,52.0,48.0,29.81,NNW,345,15.0,39.0,85,0.00,,,0.00,,2013-05-28 21:21:00,
2013-05-28 14:33:00,51.0,48.0,29.81,North,351,17.0,38.0,88,0.00,,,0.00,,2013-05-28 21:33:00,
2013-05-28 14:43:00,51.0,47.0,29.81,North,360,17.0,35.0,87,0.00,,,0.00,,2013-05-28 21:43:00,
2013-05-28 14:53:00,51.0,47.0,29.81,North,360,17.0,35.0,87,0.00,,,0.00,,2013-05-28 21:53:00,
2013-05-28 15:02:00,51.0,48.0,29.81,NW,317,27.0,48.0,88,0.00,,,0.00,,2013-05-28 22:02:00,
2013-05-28 15:12:00,52.0,48.0,29.82,NW,325,17.0,37.0,86,0.00,,,0.00,,2013-05-28 22:12:00,
2013-05-28 15:22:00,52.0,48.0,29.82,NW,325,17.0,37.0,86,0.00,,,0.00,,2013-05-28 22:22:00,
2013-05-28 15:32:00,51.0,47.0,29.81,NNW,337,20.0,40.0,87,0.00,,,0.00,,2013-05-28 22:32:00,
2013-05-28 15:42:00,52.0,48.0,29.81,North,11,15.0,48.0,85,0.00,,,0.00,,2013-05-28 22:42:00,
2013-05-28 15:52:00,52.0,48.0,29.81,North,11,15.0,48.0,85,0.00,,,0.00,,2013-05-28 22:52:00,
2013-05-28 16:02:00,52.0,47.0,29.80,North,360,23.0,47.0,83,0.00,,,0.00,,2013-05-28 23:02:00,
2013-05-28 16:11:00,52.0,47.0,29.80,North,360,23.0,47.0,83,0.00,,,0.00,,2013-05-28 23:11:00,
2013-05-28 16:21:00,52.0,47.0,29.80,North,360,23.0,47.0,83,0.00,,,0.00,,2013-05-28 23:21:00,
2013-05-28 16:32:00,52.0,47.0,29.80,North,360,23.0,47.0,83,0.00,,,0.00,,2013-05-28 23:32:00,
2013-05-28 16:41:00,52.0,47.0,29.80,North,360,23.0,47.0,83,0.00,,,0.00,,2013-05-28 23:41:00,
2013-05-28 16:52:00,53.0,47.0,29.81,North,360,19.0,46.0,81,0.00,,,0.00,,2013-05-28 23:52:00,
2013-05-28 17:02:00,53.0,47.0,29.81,North,360,19.0,46.0,81,0.00,,,0.00,,2013-05-29 00:02:00,
2013-05-28 17:11:00,53.0,47.0,29.81,North,360,19.0,46.0,81,0.00,,,0.00,,2013-05-29 00:11:00,
2013-05-28 17:21:00,53.0,47.0,29.79,North,360,26.0,42.0,80,0.00,,,0.00,,2013-05-29 00:21:00,
2013-05-28 17:32:00,54.0,47.0,29.80,North,355,27.0,44.0,78,0.00,,,0.00,,2013-05-29 00:32:00,
2013-05-28 17:42:00,54.0,47.0,29.80,North,355,27.0,44.0,78,0.00,,,0.00,,2013-05-29 00:42:00,
2013-05-28 17:52:00,54.0,47.0,29.77,North,355,28.0,46.0,77,0.00,,,0.00,,2013-05-29 00:52:00,
2013-05-28 18:01:00,54.0,47.0,29.77,North,355,28.0,46.0,77,0.00,,,0.00,,2013-05-29 01:01:00,
2013-05-28 18:11:00,54.0,47.0,29.77,North,355,28.0,46.0,77,0.00,,,0.00,,2013-05-29 01:11:00,
2013-05-28 18:21:00,54.0,47.0,29.77,North,355,28.0,46.0,77,0.00,,,0.00,,2013-05-29 01:21:00,
2013-05-28 18:52:00,55.0,46.0,29.78,North,360,26.0,43.0,72,0.00,,,0.00,,2013-05-29 01:52:00,
2013-05-28 19:02:00,55.0,46.0,29.78,North,360,26.0,43.0,72,0.00,,,0.00,,2013-05-29 02:02:00,
2013-05-28 19:12:00,55.0,46.0,29.78,NNW,348,25.0,44.0,72,0.00,,,0.00,,2013-05-29 02:12:00,
2013-05-28 19:21:00,55.0,46.0,29.78,NNW,348,25.0,44.0,72,0.00,,,0.00,,2013-05-29 02:21:00,
2013-05-28 19:31:00,55.0,46.0,29.78,NNW,348,25.0,44.0,72,0.00,,,0.00,,2013-05-29 02:31:00,
2013-05-28 19:41:00,55.0,46.0,29.78,NNW,348,25.0,44.0,72,0.00,,,0.00,,2013-05-29 02:41:00,
2013-05-28 19:51:00,55.0,46.0,29.78,NNW,348,25.0,44.0,72,0.00,,,0.00,,2013-05-29 02:51:00,
2013-05-28 20:02:00,55.0,45.0,29.78,NNE,13,23.0,43.0,68,0.00,,,0.00,,2013-05-29 03:02:00,
2013-05-28 20:11:00,55.0,45.0,29.78,NNE,13,23.0,43.0,68,0.00,,,0.00,,2013-05-29 03:11:00,
2013-05-28 20:21:00,55.0,45.0,29.78,NNE,13,23.0,43.0,68,0.00,,,0.00,,2013-05-29 03:21:00,
2013-05-28 20:33:00,55.0,45.0,29.78,NNE,13,23.0,43.0,68,0.00,,,0.00,,2013-05-29 03:33:00,
2013-05-28 20:43:00,55.0,45.0,29.78,NNE,13,23.0,43.0,68,0.00,,,0.00,,2013-05-29 03:43:00,
2013-05-28 20:53:00,55.0,44.0,29.79,NNE,16,24.0,42.0,66,0.00,,,0.00,,2013-05-29 03:53:00,
2013-05-28 21:02:00,56.0,44.0,29.80,North,360,26.0,45.0,64,0.00,,,0.00,,2013-05-29 04:02:00,
2013-05-28 21:12:00,56.0,44.0,29.80,North,360,26.0,45.0,64,0.00,,,0.00,,2013-05-29 04:12:00,
2013-05-28 21:23:00,56.0,44.0,29.80,North,360,26.0,45.0,64,0.00,,,0.00,,2013-05-29 04:23:00,
2013-05-28 21:33:00,55.0,43.0,29.80,NNW,346,20.0,49.0,63,0.00,,,0.00,,2013-05-29 04:33:00,
2013-05-28 21:42:00,55.0,43.0,29.80,NNW,346,20.0,49.0,63,0.00,,,0.00,,2013-05-29 04:42:00,
2013-05-28 21:52:00,55.0,43.0,29.80,North,360,26.0,47.0,65,0.00,,,0.00,,2013-05-29 04:52:00,
2013-05-28 22:02:00,55.0,43.0,29.80,North,360,23.0,47.0,65,0.00,,,0.00,,2013-05-29 05:02:00,
2013-05-28 22:11:00,55.0,43.0,29.80,North,360,23.0,47.0,65,0.00,,,0.00,,2013-05-29 05:11:00,
2013-05-28 22:22:00,55.0,43.0,29.81,North,355,27.0,42.0,64,0.00,,,0.00,,2013-05-29 05:22:00,
2013-05-28 22:32:00,55.0,43.0,29.82,North,355,22.0,39.0,65,0.00,,,0.00,,2013-05-29 05:32:00,
2013-05-28 22:42:00,55.0,43.0,29.82,North,355,22.0,39.0,65,0.00,,,0.00,,2013-05-29 05:42:00,
2013-05-28 22:52:00,55.0,45.0,29.83,NNE,22,24.0,43.0,69,0.00,,,0.00,,2013-05-29 05:52:00,
2013-05-28 23:01:00,55.0,45.0,29.83,NNE,22,24.0,43.0,69,0.00,,,0.00,,2013-05-29 06:01:00,
2013-05-28 23:11:00,55.0,45.0,29.83,NNE,22,24.0,43.0,69,0.00,,,0.00,,2013-05-29 06:11:00,
2013-05-28 23:21:00,55.0,45.0,29.83,NNE,22,24.0,43.0,69,0.00,,,0.00,,2013-05-29 06:21:00,
2013-05-28 23:31:00,54.0,47.0,29.84,NNW,346,19.0,40.0,76,0.00,,,0.00,,2013-05-29 06:31:00,
2013-05-28 23:42:00,54.0,47.0,29.84,NNW,346,19.0,40.0,76,0.00,,,0.00,,2013-05-29 06:42:00,
2013-05-28 23:52:00,54.0,47.0,29.84,NNW,346,19.0,40.0,76,0.00,,,0.00,,2013-05-29 06:52:00,